Regional Weather Roundup
Issued by NWS

Home | Current Version | Previous Version | Graphics & Text | Print | Product List | Glossary On
Versions: 1 2 3 4 5 6 7 8 9 10 11 12 13 14 15 16 17 18 19 20 21 22 23 24 25 26 27 28 29 30 31 32 33 34 35 36 37 38 39 40 41 42 43 44 45 46 47 48 49 50
000
ASUS43 KOAX 030202
RWRNE

WEATHER ROUNDUP FOR NEBRASKA
NATIONAL WEATHER SERVICE OMAHA NE
800 PM CST MON MAR 02 2015

NOTES: SATELLITE DATA IS BEING USED TO AUGMENT CLOUD COVER ABOVE
       12000 FEET.
       "FAIR" INDICATES FEW OR NO CLOUDS BELOW 12,000 FEET WITH NO
       SIGNIFICANT WEATHER AND/OR OBSTRUCTIONS TO VISIBILITY.

  * THESE STATIONS DO NOT REPORT WEATHER SUCH AS RAIN...SNOW OR FOG.

NEZ001>004-019>022-054>056-030300-
NEBRASKA PANHANDLE

CITY           SKY/WX    TMP DP  RH WIND       PRES   REMARKS
SCOTTSBLUFF    CLEAR     30  23  75 E14       29.63F WCI  19
ALLIANCE       PTCLDY    27  23  85 SE10      29.66F WCI  17
CHADRON        CLOUDY    35  24  64 S13       29.65F WCI  26
KIMBALL        PTCLDY    28  26  91 SE9       29.57F WCI  20
SIDNEY         CLOUDY    29  24  82 SE8       29.63F WCI  21
$$

NEZ057>060-069>072-079>082-030300-
SOUTHWEST NEBRASKA

CITY           SKY/WX    TMP DP  RH WIND       PRES   REMARKS
NORTH PLATTE   CLOUDY    31  23  72 S14       29.79F WCI  21
IMPERIAL         N/A     30  26  85 SE18      29.72F FOG     WCI  18
LEXINGTON      CLOUDY    32  21  64 S17       29.86F WCI  21
MCCOOK         CLOUDY    33  24  69 SE15G21   29.81F WCI  23
$$

NEZ005>010-023>029-035>040-094-030300-
NORTH CENTRAL NEBRASKA

CITY           SKY/WX    TMP DP  RH WIND       PRES   REMARKS
VALENTINE      CLOUDY    35  20  54 S15       29.76F WCI  25
AINSWORTH      CLOUDY    32  20  60 S10       29.77F WCI  24
BROKEN BOW     CLOUDY    32  19  58 S20G26    29.84F WCI  20
ORD            CLOUDY    31  14  49 S14G20    29.88F WCI  21
$$

NEZ041-046>049-061>064-073>077-083>087-030300-
SOUTH CENTRAL NEBRASKA

CITY           SKY/WX    TMP DP  RH WIND       PRES   REMARKS
GRAND ISLAND   CLOUDY    31  16  54 S16G23    29.94F WCI  20
HASTINGS       CLOUDY    31  15  52 S13       29.92F WCI  21
HEBRON         CLOUDY    32  17  54 S14G21    29.99F WCI  22
KEARNEY *      CLOUDY    28  14  54 S13       29.91F WCI  18
$$

NEZ011>018-030>034-042>045-030300-
NORTHEAST NEBRASKA

CITY           SKY/WX    TMP DP  RH WIND       PRES   REMARKS
NORFOLK        CLOUDY    35  18  49 SE14      29.95F WCI  26
BLAIR          CLOUDY    35  21  57 SE15      30.02F WCI  25
COLUMBUS *     CLOUDY    34  16  47 S13       29.99F WCI  25
FREMONT        CLOUDY    35  21  57 SE9       30.01F WCI  28
TEKAMAH        CLOUDY    34  22  61 SE15      30.04F WCI  24
$$

NEZ050>053-065>068-078-088>093-030300-
SOUTHEAST NEBRASKA

CITY           SKY/WX    TMP DP  RH WIND       PRES   REMARKS
LINCOLN        CLOUDY    35  16  45 S20       30.02F WCI  24
OMAHA EPPLEY   CLOUDY    34  20  56 SE18      30.05F WCI  23
FALLS CITY     CLOUDY    34  19  54 SE14      30.10F WCI  25
$$

NEZ044-045-051>053-067-030300-
OMAHA AREA

CITY           SKY/WX    TMP DP  RH WIND       PRES   REMARKS
OMAHA EPPLEY   CLOUDY    34  20  56 SE18      30.05F WCI  23
BLAIR          CLOUDY    35  21  57 SE15      30.02F WCI  25
FREMONT        CLOUDY    35  21  57 SE9       30.01F WCI  28
$$



USA.gov is the U.S. government's official web portal to all federal, state and local government web resources and services.